Dewpoint
57 57 58 58 58 58 58 58 58 58 58 58 58 58 58 58 58 58 58 58 58 58 58 58 59 59 59 59 59 59 59 56 47 49 42 32 68 70 71 73 72 75 78 65 64 63 60 61 68 62 68 67 66 67 70 69 71 66 57 55 53 53 53 54 56 54 52 51 52 56 55 55 53 53 52 50 48 48 49 51 53 54 57 56 57 58 57 57
57 57 57 57 58 58 58 58 58 58 58 58 58 58 58 58 58 58 58 58 58 58 58 58 58 59 59 59 59 59 58 54 48 40 40 57 67 71 73 72 73 73 74 62 62 62 59 60 64 69 61 61 64 63 65 65 65 60 57 58 51 56 58 62 62 61 54 51 55 54 54 54 53 53 52 48 45 46 46 52 54 54 55 56 57 57 57 57
57 57 57 57 57 58 58 58 57 58 57 57 58 58 58 58 58 58 58 58 58 58 58 58 58 59 59 59 59 59 57 52 50 45 38 69 69 69 72 72 72 73 62 61 62 61 58 58 60 59 66 60 61 62 64 61 61 58 58 51 55 60 63 62 63 63 62 54 54 53 51 53 52 53 50 48 46 46 48 51 52 52 53 55 55 56 56 57
57 57 57 58 58 57 57 58 57 57 57 57 58 58 58 58 58 58 58 58 58 58 58 58 59 59 59 60 60 58 54 52 44 34 41 67 68 70 71 72 72 72 60 61 62 58 57 55 59 56 63 61 59 65 60 60 60 58 58 57 59 62 63 60 63 65 65 58 53 54 51 50 52 54 52 49 50 50 47 50 51 52 53 53 55 55 56 56
57 57 57 57 57 57 57 57 58 57 57 57 58 57 58 57 57 58 58 58 58 58 58 59 59 59 59 60 60 57 54 33 32 43 58 68 68 70 71 71 73 56 57 61 61 58 54 51 54 58 59 58 58 60 59 61 60 60 59 60 63 64 61 62 63 65 64 60 55 53 52 50 53 53 49 52 52 48 48 49 52 53 53 53 53 54 55 55
56 57 57 57 57 57 57 57 57 57 57 58 57 57 57 57 57 57 58 57 58 58 58 59 59 59 60 61 58 54 43 27 30 40 67 69 70 69 72 72 72 56 56 58 59 57 52 49 50 54 62 57 55 54 55 57 61 57 58 61 63 62 61 63 63 62 55 61 59 58 59 57 55 54 56 53 52 51 49 50 52 53 53 53 53 54 54 55
56 56 57 57 57 57 57 57 57 57 57 57 57 57 57 57 57 57 57 57 57 58 58 59 59 60 60 61 56 51 48 34 29 47 70 70 70 69 72 72 74 58 55 56 57 53 51 48 44 39 55 58 56 58 58 61 62 61 61 60 61 63 61 63 64 60 58 64 63 63 59 62 56 55 57 55 50 50 49 50 52 52 53 53 53 53 53 54
56 56 56 56 57 57 57 57 57 57 57 57 57 57 57 56 57 57 57 58 58 58 58 59 59 60 60 54 52 50 45 32 44 47 71 70 65 67 70 56 54 52 54 55 55 53 50 43 37 36 49 52 51 54 56 59 61 56 59 63 60 64 63 61 59 60 63 65 65 64 63 62 59 57 54 56 51 50 50 50 51 52 53 52 52 53 53 54
55 56 56 56 56 56 56 56 57 57 57 57 57 56 56 57 57 57 58 58 58 59 59 59 59 60 61 56 38 29 27 45 39 45 61 49 42 54 52 51 52 52 52 54 53 50 46 41 35 36 35 48 44 54 52 57 51 53 57 62 62 63 62 61 60 61 64 63 63 64 63 63 63 57 55 53 50 51 50 50 50 52 52 51 52 53 53 53
55 56 55 56 56 56 56 56 56 56 56 56 56 56 56 56 57 57 58 59 59 59 59 59 59 59 57 53 40 33 36 45 37 38 34 36 40 47 48 51 52 52 51 52 50 49 45 42 37 37 36 46 42 50 49 48 47 51 57 60 62 61 60 61 61 62 64 64 62 62 62 63 63 61 52 56 55 52 51 50 51 51 51 51 52 53 53 53
55 55 55 56 56 56 56 56 56 56 56 56 56 56 56 56 57 57 59 59 59 59 59 59 59 59 49 46 40 32 42 44 41 35 27 36 41 45 47 51 52 51 50 49 47 45 42 41 41 38 36 34 47 47 50 46 46 51 55 57 61 61 63 61 62 62 64 62 63 62 62 65 63 62 57 54 55 52 51 50 51 51 51 51 52 53 54 54
55 55 55 56 56 56 56 56 56 56 56 56 56 56 56 56 56 58 59 59 60 59 59 59 59 57 51 44 33 34 34 38 41 33 28 35 39 44 48 51 52 51 49 46 45 42 40 40 40 38 34 35 33 46 49 48 50 52 55 55 54 57 60 60 62 62 62 62 63 63 60 60 61 59 57 56 55 54 54 51 51 51 51 52 53 53 55 55
55 55 55 55 55 56 56 56 56 56 56 55 56 55 55 56 57 58 60 59 59 59 58 59 59 57 50 32 28 28 31 33 38 33 30 36 38 43 48 51 50 49 48 46 43 39 38 39 39 37 37 35 33 41 48 48 55 51 57 53 53 57 58 60 63 61 60 63 63 61 49 52 58 60 56 58 55 55 56 55 51 51 52 52 52 53 53 55
55 55 55 55 55 55 56 56 56 56 55 55 55 55 55 56 57 59 60 59 58 58 58 59 58 55 53 40 32 22 27 33 41 39 36 39 38 41 47 49 49 48 47 44 41 38 36 38 39 38 37 35 33 38 41 51 50 51 55 53 44 54 50 59 61 60 59 63 64 62 54 53 56 58 60 57 55 56 55 57 52 52 51 52 52 53 54 55
55 55 55 55 55 55 55 55 55 55 55 55 55 54 55 56 57 59 61 59 59 60 59 60 58 55 44 31 25 29 66 33 32 38 38 39 38 38 41 44 45 45 44 41 38 38 37 38 39 37 34 35 34 34 45 51 53 49 52 41 42 40 51 58 59 57 57 61 62 57 54 54 54 55 60 60 62 59 57 57 61 56 51 51 53 53 53 55
55 55 55 55 55 55 55 55 55 55 55 55 54 54 56 57 58 59 61 61 62 60 57 57 53 45 27 29 32 55 32 29 28 34 37 38 38 36 39 40 41 40 40 37 35 34 35 36 36 37 36 36 34 32 44 46 58 57 46 45 38 39 45 55 60 59 59 60 58 59 51 53 56 57 59 61 62 60 61 58 57 52 51 51 52 53 54 55
55 55 55 55 55 55 55 55 55 55 55 54 54 54 55 56 58 61 62 62 60 57 56 49 46 40 28 30 38 35 30 27 24 29 33 36 37 36 37 35 35 34 33 32 29 28 29 30 33 34 33 30 30 31 41 45 44 46 45 40 41 39 35 50 58 59 59 58 54 55 53 51 56 58 58 61 61 59 58 59 57 56 56 52 53 52 55 56
55 55 55 55 55 55 55 55 55 54 54 54 54 55 53 56 59 61 61 59 55 51 50 50 48 44 39 38 28 28 32 29 22 21 28 35 35 34 32 32 32 29 28 28 27 25 26 25 29 27 29 30 30 29 31 42 41 40 41 42 40 41 33 40 53 56 52 56 51 49 50 53 55 59 58 57 61 56 54 55 54 54 55 52 51 53 55 55
54 54 55 54 54 55 54 55 54 54 54 54 55 57 58 59 56 54 54 45 50 47 37 34 36 28 22 29 32 25 23 28 19 16 25 33 34 33 31 34 32 28 26 25 24 23 23 23 26 28 26 26 25 26 28 35 35 41 40 35 35 33 35 35 49 57 52 50 51 49 50 53 55 55 58 58 61 58 56 56 55 56 53 52 52 55 55 55
54 54 54 54 54 54 54 54 54 53 54 52 49 52 54 55 51 48 49 48 41 31 20 25 30 25 24 22 28 26 20 24 15 14 22 33 34 32 32 32 30 28 26 23 22 21 21 21 22 23 24 25 25 26 28 29 32 33 33 34 36 33 33 36 49 55 54 49 44 48 47 53 55 55 55 54 59 57 57 53 55 55 56 52 51 54 55 55
54 54 54 54 53 54 54 54 53 53 53 50 48 42 40 37 30 30 46 47 45 40 31 22 29 28 25 24 23 21 16 17 14 15 25 35 34 32 30 30 28 27 25 23 22 21 21 21 22 23 23 23 21 22 23 24 28 32 31 32 32 32 30 39 39 40 49 43 49 48 48 48 52 53 52 54 59 56 55 55 55 54 56 53 53 52 55 55
54 54 54 53 53 53 54 53 53 53 53 51 50 42 38 36 31 31 31 27 31 42 39 32 25 21 25 26 23 24 22 18 17 22 29 33 31 29 28 27 26 24 24 21 22 21 21 21 20 21 22 23 22 21 20 22 23 23 29 31 28 29 34 38 40 38 48 46 43 43 44 47 48 51 54 56 53 58 56 55 54 54 53 54 54 53 54 57
54 54 54 53 53 53 53 53 52 52 51 49 43 38 37 37 33 35 31 28 27 28 28 34 30 20 16 21 25 26 24 21 20 20 25 29 29 27 26 26 25 23 22 21 19 19 20 21 22 19 20 20 21 16 21 21 22 23 24 26 25 30 29 28 36 45 48 43 41 37 37 46 51 53 52 54 53 54 60 55 54 53 53 54 54 53 53 56
54 54 54 54 54 53 53 52 52 52 52 46 40 37 38 37 33 31 29 27 27 27 26 24 28 27 16 13 24 25 22 21 20 19 23 27 25 26 24 25 24 23 22 23 21 19 18 20 22 18 14 15 16 18 20 21 20 19 21 24 25 22 24 26 37 42 47 42 42 37 39 38 53 46 50 54 54 56 56 55 58 57 56 58 60 54 55 54
54 54 54 53 53 53 51 51 50 50 48 45 40 39 37 38 39 30 29 29 26 26 28 26 24 26 24 16 21 24 24 21 20 18 21 25 24 24 22 24 26 24 24 24 23 22 20 21 21 18 15 13 15 18 19 19 19 19 19 19 21 22 22 32 36 41 36 37 45 40 30 31 52 47 45 51 52 53 54 53 52 54 59 61 56 56 55 55
54 54 54 54 53 52 51 50 48 46 44 41 38 34 34 32 31 38 33 31 24 22 26 23 25 22 25 15 13 20 22 20 19 18 20 26 29 24 23 23 27 25 26 25 23 23 22 22 20 18 18 17 18 17 17 18 15 18 15 17 20 20 22 24 17 21 26 25 41 38 33 28 32 46 48 51 53 52 54 53 53 53 56 54 56 58 55 55
53 53 53 53 53 52 48 43 49 46 43 36 35 33 31 31 52 37 33 27 25 21 23 21 22 20 23 17 13 17 17 18 18 18 22 30 26 26 24 22 24 26 25 24 24 20 22 22 21 19 18 17 15 15 14 15 16 15 19 16 17 20 15 13 15 14 22 32 37 32 31 29 28 44 49 52 50 50 52 54 54 53 54 53 55 53 58 55
53 53 53 53 52 52 49 49 47 45 43 39 38 36 34 42 44 34 32 22 18 23 21 23 22 24 22 18 15 17 17 16 15 16 21 29 28 24 26 26 22 21 22 22 21 22 20 20 20 19 19 16 15 14 14 14 15 16 18 16 16 12 15 16 21 20 23 18 23 25 27 31 33 43 48 50 47 49 50 51 52 53 53 54 57 54 57 55
53 53 52 52 51 51 51 49 48 45 45 43 41 37 34 41 32 33 31 25 22 21 26 23 24 22 19 18 16 17 15 16 16 16 21 30 29 25 22 24 24 22 22 22 18 19 20 20 18 17 16 16 16 14 12 13 13 15 16 17 17 18 18 18 20 19 27 21 25 26 27 28 32 34 45 43 42 44 46 50 51 53 54 54 53 56 56 56
52 52 52 51 50 51 51 51 49 48 47 45 42 43 38 33 32 28 26 21 22 17 20 20 21 19 18 16 16 18 16 14 18 17 22 28 29 26 24 22 21 22 23 23 22 20 19 25 27 17 15 16 17 14 13 13 15 16 8 14 16 17 20 19 23 26 27 24 26 26 25 26 29 34 30 33 40 51 48 48 52 53 53 53 53 53 59 58
51 51 51 51 49 48 48 46 48 49 49 48 44 40 38 33 29 26 21 22 20 17 18 19 17 18 17 17 16 18 17 13 15 19 23 27 26 23 23 22 24 22 21 21 21 21 18 16 17 17 17 16 16 14 14 15 15 15 15 14 14 20 21 25 27 30 23 22 26 24 24 24 26 28 31 33 35 48 46 51 51 53 54 55 56 53 52 55
51 50 51 51 50 50 45 41 46 46 48 44 42 38 31 27 26 26 23 23 19 17 17 17 16 15 17 17 16 16 14 11 13 20 23 24 24 21 20 22 24 21 19 19 17 19 16 15 15 16 23 16 15 12 12 13 15 14 15 18 15 20 27 22 27 24 27 24 27 25 28 31 27 32 31 34 36 47 44 51 53 51 50 53 56 54 56 51
50 50 50 50 50 49 48 48 48 50 47 44 41 35 29 26 27 22 19 19 17 19 16 18 15 15 15 16 15 14 13 9 12 20 24 24 23 22 21 20 23 20 15 16 15 15 15 15 13 13 14 18 14 12 10 10 12 13 15 16 18 17 21 24 26 29 28 28 27 28 35 31 30 26 33 37 39 47 46 47 50 52 51 57 53 55 53 56
49 50 50 51 50 49 48 52 52 51 45 43 39 31 29 26 23 34 23 20 15 16 17 16 15 16 16 14 15 13 10 11 12 17 21 22 21 21 21 21 20 20 16 13 13 12 13 13 12 11 11 14 12 12 10 10 12 12 13 11 16 22 20 25 25 22 22 23 24 32 32 29 25 43 40 44 45 46 46 51 51 52 55 58 57 55 53 59
49 50 52 52 51 50 49 50 53 51 45 38 32 30 26 26 26 23 21 21 19 15 15 16 15 15 15 15 15 13 11 11 11 16 19 19 20 20 20 21 21 19 18 13 13 15 10 10 10 12 12 12 11 10 11 10 11 13 11 11 12 17 21 20 22 18 17 20 22 32 34 33 31 39 39 43 41 44 46 46 54 56 56 56 53 55 52 58
50 55 52 52 50 51 50 50 51 49 42 37 31 30 26 26 23 20 18 21 19 19 17 15 16 15 14 14 15 14 13 13 10 10 15 18 18 19 19 20 21 20 17 15 13 11 13 7 8 12 12 9 9 9 8 10 11 11 10 11 12 14 14 21 20 13 14 17 21 23 26 28 28 33 34 39 39 44 45 45 44 46 47 49 49 47 45 49
49 50 51 52 52 51 51 50 48 47 40 34 32 28 27 25 24 22 29 19 21 21 20 17 15 14 14 13 15 15 13 12 10 10 13 18 17 17 18 19 21 20 17 16 14 11 11 11 6 10 10 8 9 8 6 8 10 11 10 11 12 13 14 18 14 21 15 15 24 25 21 21 23 41 35 38 38 41 44 42 44 46 48 42 46 50 54 53
49 50 50 49 47 45 48 50 45 44 37 34 32 39 32 28 26 23 22 23 22 21 19 19 17 15 15 13 14 15 14 10 11 10 10 14 15 17 16 18 18 19 18 16 15 15 12 10 8 9 9 8 8 8 5 6 10 10 11 14 11 13 14 18 15 13 14 19 22 20 20 23 25 36 34 37 37 38 42 44 44 44 44 47 47 50 56 57
50 48 47 46 44 44 45 49 42 40 36 32 31 33 30 28 27 24 24 25 25 23 21 18 15 16 15 14 15 16 15 11 11 11 12 13 13 16 16 17 17 17 18 16 13 14 14 10 11 9 9 8 8 8 8 5 8 11 13 11 13 13 15 18 17 18 18 16 18 22 19 29 34 38 27 32 38 40 41 40 45 45 45 52 53 52 52 54
49 48 46 44 43 45 48 42 38 37 33 31 31 30 30 27 26 26 22 25 25 24 22 20 17 15 18 17 17 16 17 14 12 11 10 15 13 16 16 17 16 17 17 16 13 12 14 22 14 9 10 6 9 9 6 7 7 9 11 12 11 10 12 12 14 15 15 20 19 21 37 35 37 43 33 37 40 42 42 43 45 53 53 53 54 52 55 56
48 46 43 45 43 47 45 40 37 34 34 33 32 30 29 27 26 24 22 26 26 26 23 21 20 18 20 20 18 17 17 17 14 12 12 13 13 17 17 17 17 16 16 15 15 14 17 15 15 13 8 8 7 9 7 7 7 8 10 12 11 10 13 13 17 14 13 17 23 22 35 36 36 37 46 41 42 44 44 41 41 48 52 54 55 54 57 59
48 44 42 44 44 45 41 37 36 35 33 31 30 30 27 42 24 24 25 25 24 23 23 22 22 20 21 22 21 21 18 18 18 15 14 11 14 16 17 18 17 16 15 18 16 15 20 15 14 14 10 7 8 8 9 8 8 8 8 9 9 9 11 16 16 20 13 12 13 30 33 34 37 36 38 44 46 49 51 47 49 53 53 53 55 55 56 59
44 36 45 45 44 42 39 37 40 38 34 31 31 30 29 26 25 24 23 24 22 23 22 22 23 21 21 22 22 22 22 20 18 16 13 14 15 16 17 18 16 15 15 17 17 18 44 16 15 13 15 12 9 8 10 9 7 7 7 8 6 5 6 10 12 16 16 25 31 27 33 31 35 42 42 44 46 53 57 51 50 50 54 59 58 59 60 61
43 41 41 43 44 41 37 34 34 33 33 34 33 29 25 26 28 26 27 26 24 24 24 24 23 23 23 22 21 21 23 22 20 18 19 17 16 17 17 17 18 15 15 16 20 18 17 24 21 19 19 18 13 9 7 8 7 6 6 9 8 6 7 8 10 16 19 16 24 38 40 39 39 47 47 48 43 47 50 47 52 49 54 56 61 63 64 62
46 47 42 40 44 40 34 34 34 34 35 36 36 36 36 33 30 29 29 29 30 29 27 25 25 26 24 23 22 22 22 21 22 20 19 19 17 17 17 18 17 17 16 16 46 16 15 18 27 19 19 17 17 10 14 10 8 5 8 6 8 6 12 12 11 24 19 28 33 39 41 45 39 46 44 42 45 51 51 49 49 51 55 57 56 59 63 62
42 39 39 34 41 39 38 36 33 29 28 30 33 36 34 33 32 33 33 31 31 31 31 30 29 29 27 27 27 24 22 23 21 23 22 18 18 19 17 16 16 17 46 58 37 22 17 18 23 27 24 22 24 29 10 14 8 6 5 7 7 8 8 13 16 23 17 30 29 37 36 36 33 40 43 42 48 47 49 47 49 52 58 59 59 60 59 62
42 39 38 39 40 35 34 36 36 35 34 36 37 33 33 32 36 32 33 30 32 31 30 29 28 28 28 27 26 26 25 22 23 24 23 22 21 19 19 18 17 32 57 42 38 18 30 20 20 32 21 19 15 17 16 17 12 9 6 5 7 8 10 12 12 24 42 26 28 43 47 28 32 36 38 41 46 47 45 49 48 55 60 58 57 60 61 63
37 39 40 41 37 35 35 36 37 37 37 36 35 34 34 32 31 31 33 32 32 32 30 30 29 29 28 28 31 31 28 27 27 25 23 23 23 22 20 18 16 51 39 20 20 21 20 17 19 18 16 15 16 17 16 16 16 15 8 6 6 7 10 13 14 16 23 23 26 41 42 36 37 35 38 41 43 45 42 47 50 54 54 60 62 61 60 60
42 40 40 41 38 38 36 36 34 34 34 34 35 35 33 32 31 31 31 33 34 35 34 30 31 33 31 29 29 32 36 33 30 29 28 24 26 27 22 21 16 27 24 20 21 33 28 20 21 19 19 16 15 15 17 17 17 15 12 11 9 7 8 9 9 13 16 27 36 31 42 33 35 32 35 34 37 37 39 50 52 53 53 59 60 62 61 63
42 42 41 43 42 40 41 38 36 33 32 37 36 34 32 32 31 34 34 35 39 35 35 34 32 32 34 43 37 35 35 35 39 36 39 38 36 32 29 26 19 17 17 21 22 28 22 26 29 18 22 16 13 13 15 17 19 17 15 14 12 9 7 9 10 11 17 20 22 28 34 34 36 42 40 36 39 34 43 47 47 53 56 58 59 60 63 65
42 45 46 44 42 41 41 37 34 35 33 33 34 34 37 35 34 37 38 37 36 36 36 36 36 37 36 36 35 41 42 40 40 39 39 38 37 38 38 38 32 32 31 23 23 25 22 22 21 21 20 19 18 15 14 15 17 18 16 16 14 9 11 9 14 14 19 25 28 26 34 30 37 42 41 46 45 42 42 47 51 52 55 60 58 60 61 61
45 44 45 44 42 45 41 38 40 28 27 37 35 34 34 35 35 36 37 36 35 36 37 37 37 37 37 37 39 42 41 41 40 40 40 38 37 37 36 36 35 34 33 33 30 21 25 23 23 20 19 19 20 17 14 14 15 16 16 15 16 14 15 13 15 18 17 19 25 27 29 33 39 41 37 39 43 42 44 44 51 55 58 57 58 56 57 62